Vertical_Velocity
-1 -2 -2 -3 -2 -2 -1 -1 -2 -3 -3 -3 -3 -3 -3 -2 -3 -2 -2 -1 -3 -3 -1 -0 -0 1 3 5 3 1 0 1 -1 -3 -2 1 3 5 6 4 3 6 12 20 13 3 -4 -6 1 6 8 4 0 -2 -3 -1 -1 -1 -1 0 -0 0 2 4 3 4 4 2 -0
-1 -2 -2 -3 -3 -2 -2 -1 -2 -3 -4 -4 -4 -4 -4 -3 -3 -3 -2 -2 -3 -3 -2 -2 -1 1 2 2 3 2 1 1 -1 -2 -2 0 2 5 6 5 2 4 13 32 31 20 7 -3 4 12 17 15 7 1 -3 -3 -1 -2 -3 -2 -1 1 2 3 3 4 5 2 0
-2 -2 -2 -2 -3 -3 -3 -2 -2 -3 -3 -4 -4 -4 -4 -4 -4 -3 -3 -2 -3 -3 -4 -4 -2 -0 1 1 3 2 2 1 1 -0 -0 -0 3 5 6 6 3 2 8 25 37 34 21 2 0 11 24 29 15 5 -1 -3 -1 -2 -4 -3 -1 1 1 -0 2 5 6 3 1
-2 -2 -2 -2 -2 -3 -3 -3 -3 -3 -3 -3 -3 -4 -4 -4 -4 -4 -4 -4 -4 -4 -5 -5 -5 -3 -2 -0 1 1 2 1 2 1 1 2 4 5 6 6 5 3 3 10 26 29 20 0 -2 9 24 33 20 10 2 -2 -1 -3 -5 -3 0 -0 -2 -2 2 4 4 1 2
-2 -3 -2 -2 -2 -3 -3 -4 -4 -4 -4 -4 -4 -4 -4 -5 -5 -5 -5 -5 -4 -5 -6 -7 -7 -6 -5 -3 -2 -1 1 1 2 2 3 4 5 6 6 7 6 4 3 2 7 7 4 -3 0 9 20 29 26 17 7 0 -2 -5 -5 -2 -1 -3 -4 -1 2 2 2 0 2
-2 -2 -2 -2 -2 -3 -4 -5 -4 -4 -5 -5 -4 -5 -5 -5 -5 -6 -6 -6 -5 -5 -6 -7 -8 -8 -7 -6 -5 -3 -1 0 1 2 4 5 6 7 7 7 6 5 5 4 -0 -3 -3 -1 1 6 13 23 26 20 11 4 -2 -5 -5 -1 -3 -3 -2 -0 -0 1 1 -1 1
-2 -2 -2 -2 -3 -3 -4 -5 -5 -5 -5 -5 -5 -5 -6 -6 -6 -6 -6 -6 -6 -6 -6 -6 -7 -8 -8 -8 -7 -5 -4 -2 -0 2 3 4 6 7 8 7 6 6 5 4 3 2 1 2 2 3 5 10 11 9 7 4 -1 -4 -4 -2 -2 -0 1 -2 -1 1 1 -1 -1
-2 -2 -2 -3 -3 -4 -4 -5 -5 -5 -5 -5 -5 -6 -6 -6 -6 -6 -6 -6 -5 -6 -6 -6 -6 -7 -8 -8 -7 -6 -5 -4 -2 -0 1 3 5 6 7 7 7 7 5 5 5 4 3 3 3 3 3 3 1 0 1 2 -2 -3 -2 -1 2 4 3 -1 1 2 2 0 1
-2 -2 -3 -3 -4 -4 -4 -4 -4 -5 -5 -5 -5 -6 -6 -6 -7 -7 -6 -5 -5 -5 -5 -6 -6 -6 -6 -7 -7 -6 -6 -5 -3 -2 -0 2 3 4 6 7 8 7 6 6 5 4 3 3 3 3 3 4 1 -1 -0 1 -1 -1 0 3 6 6 5 3 3 3 2 2 1
-2 -2 -2 -2 -3 -3 -3 -3 -4 -4 -4 -5 -5 -5 -5 -6 -7 -7 -6 -6 -5 -5 -5 -5 -5 -5 -5 -5 -5 -5 -5 -5 -3 -2 -1 0 1 2 4 5 7 7 7 7 5 4 3 3 4 7 9 9 4 3 3 3 1 1 4 7 7 7 7 7 6 5 4 3 2
-2 -2 -2 -2 -3 -3 -3 -3 -3 -4 -4 -4 -4 -4 -5 -6 -6 -7 -6 -6 -5 -5 -5 -5 -5 -4 -4 -3 -3 -4 -4 -4 -3 -2 -1 0 1 1 2 3 5 6 7 7 6 5 4 4 4 8 14 19 18 17 15 10 5 4 5 6 6 7 8 10 10 9 6 5 4
-2 -2 -2 -2 -3 -3 -3 -3 -3 -3 -3 -3 -4 -4 -4 -6 -6 -6 -6 -5 -4 -5 -5 -5 -5 -4 -4 -3 -2 -2 -2 -2 -2 -1 -1 0 1 1 1 2 4 5 6 6 6 7 6 6 5 5 9 18 27 29 26 20 14 10 8 6 5 6 8 11 12 10 8 7 6
-2 -2 -3 -3 -3 -2 -2 -3 -3 -3 -3 -3 -3 -4 -4 -5 -6 -6 -5 -4 -4 -4 -4 -5 -5 -5 -4 -3 -2 -1 -1 -1 -1 -1 -1 0 1 1 1 2 4 6 7 6 7 8 8 8 7 4 4 7 19 26 27 24 19 14 11 7 4 3 5 8 10 10 9 8 7
-2 -3 -3 -3 -3 -2 -2 -2 -2 -2 -3 -3 -3 -4 -5 -5 -6 -5 -4 -4 -4 -4 -4 -4 -5 -5 -4 -3 -2 -1 -0 0 -0 -0 -1 -0 0 1 1 3 9 15 17 11 7 6 7 7 6 5 3 3 9 15 19 17 12 8 5 3 1 0 2 5 7 8 8 7 7
-3 -3 -3 -3 -3 -3 -3 -2 -2 -2 -2 -2 -3 -4 -5 -5 -5 -5 -4 -3 -3 -3 -4 -4 -4 -4 -4 -4 -3 -2 -1 0 -0 -0 -1 -1 -0 1 1 2 12 24 31 25 11 4 3 6 6 5 5 4 4 7 9 8 3 1 -0 -0 -0 -0 1 3 5 6 6 6 7
-3 -3 -3 -3 -3 -3 -3 -3 -2 -2 -2 -2 -3 -4 -5 -6 -5 -4 -4 -3 -3 -3 -4 -4 -4 -4 -4 -4 -3 -2 -1 -1 -1 -1 -1 -1 -0 1 1 2 9 20 28 29 18 9 4 6 5 5 4 2 1 2 3 3 1 0 1 2 2 1 1 3 4 4 4 3 5
-3 -3 -3 -3 -3 -3 -3 -3 -3 -2 -1 -1 -3 -4 -6 -6 -5 -4 -4 -3 -3 -3 -4 -4 -4 -3 -3 -3 -3 -3 -2 -2 -1 -1 -0 1 1 2 2 1 4 7 12 16 18 17 14 9 6 3 2 0 -0 -1 -1 -0 1 2 3 3 3 2 3 4 4 4 2 1 2
-2 -3 -3 -3 -3 -3 -3 -3 -3 -2 -1 -1 -2 -4 -6 -6 -5 -4 -3 -3 -3 -3 -4 -4 -4 -3 -3 -3 -3 -3 -3 -2 -1 -0 1 3 3 3 2 2 2 2 3 5 13 20 22 16 7 2 0 0 -0 -2 -3 -2 1 3 5 5 4 4 5 5 5 5 4 2 3
-2 -3 -3 -3 -3 -2 -2 -2 -2 -2 -1 -0 -1 -3 -5 -6 -4 -3 -2 -2 -3 -3 -3 -3 -4 -3 -3 -3 -3 -3 -3 -2 -1 0 1 2 2 2 2 2 2 1 1 3 8 15 20 17 8 3 1 1 0 -1 -2 -2 1 4 5 6 5 6 6 6 7 8 8 7 6
-2 -3 -3 -3 -3 -2 -2 -2 -2 -2 -1 -0 -1 -2 -4 -5 -4 -2 -1 -1 -2 -3 -3 -3 -3 -3 -3 -3 -3 -4 -4 -3 -1 -0 0 1 1 1 2 2 2 2 2 2 5 8 11 9 5 3 2 3 1 -1 -2 -1 1 3 4 5 5 5 5 6 10 12 13 11 9
-2 -3 -3 -3 -3 -2 -2 -3 -3 -3 -2 -1 -0 -1 -3 -5 -4 -2 -1 -1 -2 -2 -2 -2 -2 -2 -2 -3 -4 -4 -4 -3 -2 -1 -1 -0 0 0 1 1 2 2 2 3 3 3 2 2 2 2 3 4 2 1 -1 -0 1 2 3 4 4 4 5 8 14 17 16 13 10
-2 -2 -3 -3 -3 -2 -2 -3 -3 -3 -2 -1 0 -0 -2 -4 -4 -3 -2 -1 -1 -2 -2 -2 -1 -1 -2 -2 -3 -4 -4 -4 -2 -1 -1 0 0 1 1 1 1 2 2 2 1 0 -0 -0 1 2 3 3 2 1 1 0 1 1 2 3 4 4 6 11 17 19 17 13 10
-1 -2 -2 -2 -2 -2 -2 -3 -3 -3 -2 -1 1 1 -1 -3 -4 -4 -3 -1 -1 -2 -2 -2 -2 -1 -1 -1 -2 -3 -3 -3 -2 -1 -0 1 1 1 1 2 3 3 2 1 1 0 0 0 1 1 2 2 1 1 1 0 0 1 1 2 3 5 8 13 18 18 16 12 8
-1 -2 -2 -2 -2 -2 -2 -2 -3 -3 -2 -1 1 1 0 -2 -4 -4 -3 -2 -1 -2 -2 -3 -2 -2 -2 -1 -1 -1 -2 -2 -1 -0 0 1 1 1 2 3 4 4 3 2 2 1 1 1 0 0 0 0 0 -0 -1 -1 -1 -1 -1 0 1 3 7 13 16 16 13 10 7
-1 -1 -2 -2 -2 -2 -2 -2 -2 -3 -2 -1 0 1 1 -1 -3 -4 -3 -2 -1 -1 -2 -3 -3 -3 -2 -1 -1 -1 -1 -2 -1 -1 -0 0 1 1 2 2 3 3 3 3 3 2 1 0 -1 -1 -1 -0 -0 -1 -2 -2 -3 -3 -2 -2 -1 2 6 11 13 12 10 7 5
0 -1 -1 -2 -1 -1 -1 -1 -2 -2 -2 -2 -0 1 2 1 -2 -3 -3 -3 -1 -1 -1 -2 -3 -3 -3 -2 -1 -0 -1 -2 -1 -1 -1 1 6 8 9 6 3 2 2 3 3 3 2 0 -1 -1 -0 1 1 0 -1 -2 -2 -2 -1 -1 -0 3 7 10 10 8 6 4 3
1 0 -0 -1 -1 -1 -1 -1 -1 -2 -2 -2 -0 1 2 2 -0 -2 -3 -3 -2 -1 -0 -1 -2 -3 -3 -2 -1 -1 -1 -2 -2 -3 -2 -1 6 10 12 10 7 4 2 2 2 3 2 1 0 0 2 3 4 3 2 1 1 1 1 1 3 6 9 10 7 5 3 2 1
1 1 0 -1 -1 -1 -1 -1 -1 -2 -2 -2 -1 1 2 3 1 -1 -2 -3 -2 -1 -0 -0 -1 -2 -2 -2 -1 -1 -1 -2 -2 -3 -3 -2 1 4 7 10 9 7 3 1 1 2 2 2 2 2 4 5 5 5 4 4 3 3 4 4 7 9 10 9 5 3 2 1 1
1 1 1 -0 -1 -1 -1 -0 -1 -1 -1 -2 -1 0 2 3 2 0 -1 -2 -2 -1 -1 -0 -1 -1 -1 -2 -1 -1 -2 -2 -2 -2 -1 -1 0 1 3 6 9 9 7 4 2 1 2 2 3 4 5 6 6 6 7 7 6 6 7 7 10 11 10 7 4 2 2 2 1
1 1 1 0 -0 -1 -1 -0 -0 -1 -1 -1 -1 0 1 2 2 1 0 -1 -2 -2 -1 -0 -0 -0 -0 -0 -0 -0 -1 -2 -2 -1 -1 -0 0 1 3 6 7 8 9 8 6 4 4 4 4 5 5 6 6 6 7 7 7 8 9 10 10 10 8 6 4 3 2 2 2
0 1 1 0 -0 -1 -1 -1 -0 -0 -1 -1 -1 -0 1 2 2 2 1 -0 -1 -1 -1 -0 -0 -0 -0 0 1 1 0 -1 -1 -1 -1 -1 0 2 5 6 6 6 6 7 6 6 6 6 6 5 5 5 5 5 5 6 6 7 8 9 9 8 7 5 3 2 2 2 2
-0 0 0 0 -0 -0 -1 -1 -1 -1 -1 -1 -1 -0 0 1 2 2 2 1 -0 -1 -1 -1 -1 -1 -0 0 1 1 1 1 0 -0 -1 -1 1 3 5 7 7 6 5 4 3 3 3 4 4 4 4 4 4 4 4 4 5 6 7 7 7 7 6 4 3 3 2 2 1
-0 -0 -0 -0 -0 -1 -1 -1 -1 -1 -1 -1 -1 -0 0 1 1 2 2 2 1 1 0 -0 -0 -1 -1 -0 0 1 1 1 1 0 -0 -0 1 3 5 6 7 7 6 5 2 1 -0 -0 -0 -0 -0 0 0 1 2 2 3 4 5 6 6 5 5 4 3 3 2 2 1
0 -0 -0 -0 -0 -1 -1 -1 -1 -1 -1 -1 -1 -1 -0 0 1 1 1 2 1 1 1 0 0 -0 -1 -0 0 1 1 1 0 0 -0 0 2 3 4 5 6 7 7 6 3 1 -0 -1 -2 -3 -3 -3 -2 -1 -0 1 2 2 3 4 4 4 4 3 3 2 2 1 0
1 0 0 -0 -0 -0 -1 -1 -1 -1 -1 -1 -1 -1 -1 -0 0 1 1 1 2 1 1 1 1 1 0 -1 0 1 1 1 0 0 0 1 2 3 4 4 4 5 6 5 4 3 3 2 1 -0 -1 -1 -1 -0 0 0 1 1 1 1 2 2 2 2 1 1 0 -0 -1
1 1 1 0 -0 -0 -0 -1 -1 -1 -1 -1 -1 -1 -1 -1 -1 -0 1 1 1 1 1 1 1 1 1 -0 -1 -0 0 1 1 1 1 1 2 3 3 3 3 4 4 3 2 3 5 6 5 4 3 3 3 2 2 1 1 0 0 -0 -1 -1 -1 -1 -1 -1 -1 -1 -2
-0 0 0 0 0 0 -0 -0 -0 -1 -1 -1 -1 -1 -1 -1 -1 -1 -0 1 1 1 1 1 1 1 1 0 -1 -1 -1 1 2 2 2 2 3 3 3 3 3 3 2 2 1 3 6 7 7 6 5 5 5 4 4 3 1 1 -0 -1 -2 -2 -2 -2 -2 -2 -3 -3 -3
-1 -0 0 0 0 0 0 0 -0 -0 -1 -1 -1 -1 -1 -1 -1 -1 -1 0 1 1 1 1 1 1 1 1 -0 -1 -2 -1 1 2 2 3 3 3 3 2 2 2 1 1 1 2 5 7 7 6 6 5 5 5 5 4 3 2 0 -1 -2 -2 -3 -3 -3 -3 -3 -3 -3
-1 -1 -0 -0 0 0 0 0 0 0 0 -0 -1 -1 -1 -1 -1 -1 -1 -0 0 0 0 1 1 1 1 0 -0 -1 -2 -1 -0 1 2 2 2 2 2 2 2 1 1 1 1 2 3 5 5 5 5 5 5 6 5 5 4 2 1 -0 -1 -2 -2 -2 -2 -3 -3 -2 -1
-0 -0 -0 -0 -0 0 1 1 0 0 0 0 0 -0 -1 -1 -1 -1 -1 -1 -1 -0 -0 0 1 1 1 1 -0 -1 -1 -1 -0 1 1 2 2 2 2 1 1 1 1 1 1 1 2 3 4 4 5 5 5 5 5 5 3 2 1 -0 -0 -0 -0 -1 -1 -1 -1 -0 0
1 1 1 -0 -0 -0 1 1 0 0 0 0 0 0 0 -0 -0 -1 -1 -1 -1 -1 -1 -0 0 1 1 1 0 -0 -1 -0 0 1 1 2 2 2 2 1 0 0 0 1 1 1 2 2 3 3 3 4 4 4 4 4 3 1 0 -1 -0 0 0 0 0 0 0 1 1
Height
5539 5537 5536 5535 5534 5533 5531 5530 5529 5528 5526 5525 5524 5524 5522 5522 5521 5519 5519 5518 5517 5516 5515 5515 5515 5515 5514 5514 5514 5514 5514 5514 5515 5517 5519 5521 5524 5525 5527 5529 5531 5537 5541 5541 5539 5536 5536 5538 5544 5547 5547 5548 5546 5546 5547 5549 5551 5552 5553 5554 5556 5558 5559 5561 5563 5564 5565 5567 5569
5535 5534 5532 5531 5529 5529 5527 5526 5524 5523 5521 5520 5519 5518 5516 5515 5514 5513 5512 5511 5510 5509 5508 5508 5508 5508 5507 5507 5507 5507 5507 5507 5509 5510 5512 5515 5517 5519 5521 5523 5525 5530 5535 5537 5536 5534 5533 5535 5542 5545 5544 5543 5540 5539 5541 5543 5544 5546 5548 5549 5550 5552 5554 5555 5557 5559 5560 5562 5563
5531 5530 5529 5527 5526 5524 5523 5522 5520 5519 5517 5515 5514 5512 5510 5509 5508 5507 5505 5504 5503 5502 5501 5500 5500 5500 5499 5499 5499 5499 5499 5500 5501 5503 5505 5508 5510 5513 5515 5517 5519 5523 5526 5530 5531 5530 5530 5531 5535 5540 5541 5536 5534 5534 5535 5536 5539 5541 5543 5544 5545 5546 5548 5550 5551 5553 5554 5556 5558
5528 5526 5525 5524 5522 5521 5519 5518 5516 5514 5512 5510 5509 5507 5505 5504 5502 5501 5499 5498 5497 5496 5494 5493 5493 5492 5492 5492 5492 5492 5492 5493 5494 5496 5498 5500 5503 5505 5508 5510 5513 5515 5518 5521 5523 5524 5525 5526 5529 5534 5536 5534 5529 5528 5529 5530 5533 5535 5537 5538 5539 5541 5543 5545 5546 5547 5549 5551 5553
5525 5523 5522 5520 5519 5517 5515 5514 5512 5510 5508 5506 5504 5502 5500 5499 5497 5496 5495 5494 5492 5490 5489 5488 5487 5486 5485 5485 5484 5484 5484 5485 5486 5488 5490 5493 5495 5498 5500 5503 5506 5508 5511 5513 5514 5516 5518 5519 5523 5526 5528 5529 5524 5522 5523 5525 5527 5529 5531 5532 5534 5536 5538 5540 5541 5543 5544 5546 5548
5522 5520 5519 5517 5515 5514 5511 5509 5508 5505 5504 5502 5500 5498 5497 5495 5494 5492 5491 5489 5488 5486 5484 5483 5482 5480 5479 5479 5478 5478 5478 5478 5479 5480 5482 5484 5487 5490 5493 5496 5498 5501 5503 5506 5507 5509 5511 5513 5515 5517 5519 5519 5519 5518 5518 5519 5521 5523 5525 5528 5529 5532 5534 5535 5536 5538 5539 5541 5543
5519 5517 5515 5514 5512 5510 5508 5506 5504 5502 5500 5498 5496 5495 5493 5492 5490 5489 5487 5486 5484 5482 5481 5479 5478 5476 5475 5474 5473 5472 5472 5472 5472 5473 5474 5477 5479 5482 5485 5488 5491 5494 5496 5499 5501 5503 5505 5507 5509 5511 5511 5511 5511 5511 5513 5514 5516 5519 5521 5524 5525 5528 5529 5531 5532 5534 5535 5537 5538
5515 5514 5512 5510 5509 5507 5504 5502 5500 5499 5497 5495 5494 5492 5490 5489 5487 5485 5484 5482 5481 5479 5477 5476 5474 5472 5471 5470 5469 5468 5467 5466 5466 5467 5468 5469 5472 5475 5478 5481 5484 5486 5489 5492 5495 5497 5499 5501 5504 5505 5506 5508 5508 5509 5509 5510 5512 5515 5517 5520 5522 5524 5526 5527 5528 5530 5532 5533 5534
5512 5511 5509 5507 5505 5503 5501 5499 5497 5496 5494 5492 5491 5489 5487 5486 5484 5482 5481 5479 5478 5476 5474 5472 5471 5469 5467 5466 5465 5464 5463 5462 5461 5461 5462 5463 5465 5468 5470 5474 5477 5479 5483 5485 5489 5491 5494 5496 5499 5501 5503 5504 5505 5505 5506 5508 5509 5511 5514 5516 5518 5520 5522 5523 5525 5526 5528 5529 5531
5509 5508 5506 5504 5502 5500 5498 5496 5494 5493 5491 5490 5488 5486 5484 5483 5481 5479 5478 5476 5474 5472 5471 5469 5467 5466 5464 5463 5461 5460 5459 5458 5457 5457 5457 5458 5459 5462 5464 5467 5470 5474 5476 5479 5483 5485 5489 5491 5494 5497 5500 5501 5502 5503 5503 5504 5506 5508 5509 5512 5514 5516 5518 5520 5521 5523 5524 5526 5527
5506 5505 5503 5501 5499 5498 5495 5494 5492 5490 5489 5487 5485 5484 5482 5480 5478 5476 5474 5473 5471 5469 5467 5465 5464 5462 5461 5459 5458 5456 5455 5454 5454 5453 5453 5454 5454 5456 5459 5461 5464 5468 5471 5474 5477 5480 5483 5486 5489 5493 5496 5500 5501 5501 5501 5501 5502 5504 5506 5508 5510 5512 5514 5516 5518 5519 5520 5522 5523
5504 5502 5500 5498 5496 5494 5493 5491 5489 5488 5486 5484 5483 5481 5479 5477 5475 5473 5472 5470 5468 5466 5464 5462 5460 5459 5457 5456 5454 5453 5452 5451 5450 5450 5450 5450 5451 5452 5454 5457 5460 5463 5467 5470 5473 5476 5479 5481 5484 5487 5490 5495 5497 5498 5499 5499 5500 5501 5502 5504 5506 5508 5510 5511 5513 5514 5515 5517 5519
5501 5499 5497 5495 5494 5492 5490 5488 5487 5485 5484 5482 5480 5479 5476 5474 5472 5470 5469 5467 5465 5463 5461 5459 5457 5455 5454 5452 5451 5450 5449 5448 5447 5447 5447 5447 5447 5449 5451 5454 5457 5460 5464 5467 5470 5472 5474 5476 5479 5482 5484 5487 5489 5491 5492 5493 5495 5497 5499 5500 5502 5504 5505 5506 5508 5509 5510 5512 5514
5498 5496 5494 5493 5491 5489 5487 5486 5484 5483 5481 5479 5478 5476 5474 5472 5469 5468 5466 5464 5462 5460 5458 5456 5454 5452 5450 5449 5447 5446 5446 5445 5444 5444 5444 5444 5444 5446 5448 5451 5454 5459 5463 5465 5466 5468 5469 5471 5474 5477 5479 5481 5482 5483 5485 5487 5489 5491 5493 5495 5497 5499 5500 5501 5503 5504 5506 5508 5509
5496 5494 5492 5490 5488 5486 5485 5483 5481 5480 5479 5477 5475 5473 5471 5469 5467 5465 5463 5461 5459 5457 5455 5453 5451 5449 5447 5445 5444 5443 5443 5442 5441 5441 5441 5442 5442 5443 5445 5448 5452 5456 5461 5463 5463 5463 5464 5467 5469 5472 5474 5476 5477 5478 5479 5481 5483 5486 5488 5490 5492 5494 5496 5497 5498 5500 5502 5503 5505
5493 5491 5489 5487 5485 5484 5482 5480 5479 5477 5476 5474 5473 5470 5468 5466 5464 5463 5461 5459 5457 5454 5452 5450 5448 5446 5444 5443 5441 5440 5439 5439 5439 5439 5439 5439 5440 5441 5443 5445 5448 5452 5455 5459 5460 5461 5461 5463 5465 5467 5469 5470 5472 5474 5475 5477 5479 5482 5484 5486 5488 5490 5492 5493 5494 5496 5498 5499 5501
5490 5489 5487 5485 5483 5481 5479 5478 5476 5474 5473 5472 5470 5468 5466 5464 5462 5460 5458 5456 5454 5452 5450 5448 5445 5444 5442 5440 5439 5438 5437 5436 5436 5437 5437 5437 5438 5439 5440 5442 5444 5446 5449 5452 5455 5458 5460 5460 5461 5462 5464 5466 5468 5469 5471 5473 5475 5478 5480 5482 5484 5486 5488 5489 5491 5493 5494 5495 5497
5488 5486 5484 5482 5480 5479 5477 5475 5473 5472 5470 5469 5467 5465 5463 5461 5459 5458 5456 5454 5452 5450 5448 5445 5443 5441 5439 5438 5436 5435 5434 5434 5434 5434 5435 5435 5436 5436 5438 5439 5441 5443 5444 5446 5450 5454 5457 5458 5459 5459 5460 5462 5464 5466 5468 5469 5472 5474 5476 5479 5481 5483 5485 5486 5488 5490 5491 5492 5493
5485 5484 5481 5479 5478 5476 5474 5472 5471 5469 5468 5467 5465 5463 5460 5459 5457 5455 5454 5451 5449 5447 5445 5443 5441 5439 5438 5436 5434 5434 5433 5432 5432 5432 5433 5433 5433 5434 5435 5436 5438 5439 5441 5443 5445 5448 5451 5454 5455 5455 5456 5458 5460 5462 5464 5466 5468 5470 5473 5476 5478 5480 5482 5484 5485 5487 5488 5489 5489
5483 5481 5479 5477 5475 5473 5471 5470 5468 5467 5465 5464 5462 5460 5458 5456 5454 5453 5451 5449 5447 5445 5443 5441 5439 5438 5436 5434 5433 5432 5431 5431 5431 5431 5431 5431 5431 5432 5433 5434 5435 5437 5438 5439 5441 5444 5446 5448 5449 5450 5452 5454 5456 5458 5460 5462 5465 5468 5470 5473 5475 5477 5479 5481 5483 5484 5484 5484 5485
5480 5478 5476 5474 5472 5470 5469 5467 5465 5464 5463 5461 5460 5458 5456 5454 5452 5451 5449 5447 5445 5443 5441 5439 5438 5436 5434 5433 5431 5430 5430 5429 5429 5429 5429 5429 5430 5430 5430 5431 5433 5434 5436 5437 5439 5440 5442 5444 5445 5447 5449 5451 5452 5454 5457 5459 5462 5464 5467 5469 5472 5474 5476 5478 5479 5480 5480 5481 5481
5478 5476 5474 5471 5469 5468 5466 5464 5463 5461 5460 5459 5457 5455 5453 5451 5450 5448 5447 5445 5443 5441 5439 5438 5436 5434 5433 5431 5430 5429 5429 5428 5428 5428 5428 5428 5428 5429 5429 5430 5431 5432 5434 5435 5437 5438 5439 5441 5443 5444 5446 5447 5449 5451 5453 5455 5458 5461 5463 5466 5469 5471 5473 5474 5475 5476 5476 5477 5477
5475 5473 5471 5469 5467 5465 5463 5461 5460 5458 5457 5456 5455 5453 5451 5449 5448 5446 5445 5443 5441 5439 5438 5436 5434 5433 5432 5430 5429 5428 5428 5427 5427 5426 5426 5426 5427 5427 5428 5428 5429 5430 5432 5433 5434 5436 5438 5439 5440 5442 5443 5444 5446 5448 5450 5452 5454 5457 5460 5463 5465 5467 5468 5469 5470 5471 5472 5473 5473
5473 5470 5468 5466 5464 5462 5460 5459 5457 5455 5454 5453 5452 5451 5449 5447 5445 5444 5443 5441 5439 5438 5436 5434 5433 5431 5430 5429 5428 5427 5426 5426 5425 5425 5425 5425 5426 5426 5427 5427 5428 5429 5429 5431 5432 5434 5435 5437 5438 5439 5441 5442 5444 5445 5447 5449 5451 5454 5456 5458 5460 5462 5464 5464 5465 5466 5468 5469 5469
5470 5468 5466 5464 5462 5460 5458 5456 5454 5453 5451 5450 5449 5448 5447 5445 5443 5442 5441 5439 5438 5436 5434 5432 5431 5430 5429 5428 5427 5426 5425 5425 5424 5424 5424 5424 5425 5425 5426 5426 5427 5427 5428 5429 5430 5431 5433 5434 5435 5437 5438 5439 5441 5443 5444 5446 5448 5450 5452 5454 5456 5458 5459 5460 5461 5462 5464 5464 5466
5467 5465 5463 5461 5459 5457 5455 5454 5452 5450 5449 5448 5447 5446 5444 5443 5441 5439 5438 5437 5436 5434 5433 5431 5429 5428 5427 5426 5425 5425 5424 5424 5424 5424 5424 5424 5424 5425 5425 5426 5426 5426 5426 5427 5428 5429 5431 5432 5433 5435 5436 5438 5439 5441 5442 5444 5445 5447 5449 5450 5452 5454 5455 5456 5457 5459 5460 5461 5463
5464 5462 5460 5458 5456 5454 5453 5451 5449 5447 5446 5445 5444 5443 5442 5440 5439 5437 5436 5435 5434 5433 5431 5429 5428 5426 5425 5424 5424 5424 5423 5423 5423 5423 5423 5423 5423 5424 5424 5424 5425 5425 5425 5426 5426 5427 5429 5430 5431 5433 5434 5435 5437 5439 5440 5442 5443 5444 5446 5448 5449 5450 5451 5452 5454 5455 5456 5458 5459
5461 5459 5457 5455 5453 5452 5450 5448 5446 5445 5443 5442 5441 5440 5439 5438 5437 5435 5434 5433 5432 5431 5429 5428 5426 5425 5424 5423 5422 5422 5422 5422 5422 5421 5421 5421 5421 5422 5422 5423 5423 5424 5424 5424 5424 5425 5426 5427 5429 5430 5431 5433 5434 5436 5437 5439 5440 5442 5443 5444 5445 5447 5448 5449 5450 5452 5453 5455 5456
5458 5456 5454 5452 5450 5449 5447 5445 5444 5442 5440 5439 5438 5437 5437 5436 5434 5433 5431 5430 5429 5429 5428 5426 5425 5423 5422 5421 5421 5420 5420 5420 5420 5420 5420 5420 5420 5420 5420 5421 5421 5421 5422 5423 5423 5424 5424 5425 5426 5427 5429 5430 5431 5432 5434 5435 5437 5438 5439 5440 5442 5443 5444 5446 5447 5449 5450 5452 5453
5455 5453 5451 5449 5447 5446 5444 5442 5441 5439 5438 5436 5435 5434 5434 5433 5432 5430 5429 5428 5427 5427 5426 5424 5423 5422 5421 5420 5419 5419 5419 5419 5419 5419 5419 5419 5419 5419 5419 5419 5419 5419 5420 5420 5421 5422 5423 5423 5424 5425 5426 5427 5428 5429 5430 5431 5432 5434 5435 5436 5438 5439 5441 5442 5444 5445 5447 5448 5450
5452 5449 5448 5446 5444 5443 5441 5439 5438 5436 5435 5434 5433 5432 5431 5430 5429 5428 5427 5426 5425 5424 5424 5422 5421 5420 5419 5418 5418 5417 5417 5417 5417 5417 5417 5417 5417 5417 5417 5417 5417 5417 5417 5418 5419 5419 5420 5420 5421 5422 5422 5423 5424 5425 5426 5427 5429 5430 5431 5432 5434 5435 5437 5439 5440 5442 5444 5445 5447
5449 5446 5444 5443 5441 5439 5438 5436 5435 5434 5432 5431 5430 5429 5428 5427 5426 5425 5424 5424 5423 5422 5421 5421 5419 5419 5418 5417 5416 5415 5415 5415 5415 5415 5415 5415 5415 5415 5415 5415 5414 5415 5415 5415 5415 5416 5417 5417 5418 5418 5419 5419 5420 5421 5423 5424 5425 5426 5427 5429 5430 5432 5434 5435 5437 5439 5440 5442 5443
5445 5443 5441 5440 5438 5436 5434 5433 5432 5430 5429 5428 5427 5426 5425 5424 5424 5423 5422 5421 5420 5419 5419 5419 5418 5417 5416 5415 5414 5414 5414 5413 5413 5414 5414 5414 5414 5413 5413 5413 5413 5413 5413 5413 5413 5413 5414 5414 5414 5415 5416 5416 5417 5418 5419 5420 5421 5423 5424 5425 5427 5429 5430 5432 5434 5436 5437 5439 5440
5442 5440 5438 5437 5435 5433 5431 5430 5429 5427 5426 5425 5424 5423 5422 5421 5421 5420 5419 5419 5418 5417 5417 5416 5416 5415 5414 5413 5413 5412 5412 5411 5411 5411 5411 5412 5411 5411 5411 5411 5411 5411 5411 5411 5411 5411 5411 5412 5412 5413 5413 5414 5414 5415 5416 5417 5418 5419 5421 5422 5424 5425 5427 5429 5430 5432 5434 5435 5436
5439 5437 5435 5434 5432 5430 5429 5427 5425 5424 5423 5422 5421 5420 5419 5418 5418 5417 5416 5415 5415 5414 5414 5414 5413 5413 5412 5411 5410 5410 5409 5409 5409 5409 5409 5409 5409 5409 5409 5409 5409 5409 5409 5409 5409 5409 5409 5410 5410 5411 5411 5412 5413 5413 5414 5415 5415 5416 5418 5419 5420 5422 5424 5425 5427 5429 5430 5432 5433
5436 5434 5432 5430 5429 5427 5425 5424 5422 5421 5420 5419 5418 5417 5416 5415 5414 5414 5413 5413 5412 5412 5411 5411 5410 5410 5409 5409 5409 5408 5407 5407 5406 5406 5407 5407 5407 5407 5407 5407 5406 5406 5406 5407 5408 5408 5407 5408 5409 5409 5409 5410 5410 5411 5411 5412 5413 5414 5415 5416 5417 5419 5421 5422 5424 5425 5427 5428 5429
5432 5431 5429 5427 5426 5424 5423 5421 5419 5418 5417 5415 5414 5413 5412 5412 5411 5410 5410 5409 5409 5409 5408 5408 5408 5407 5407 5406 5406 5405 5405 5404 5404 5404 5404 5404 5404 5404 5404 5404 5404 5404 5404 5404 5406 5406 5405 5406 5407 5407 5407 5408 5408 5408 5409 5409 5410 5411 5412 5414 5415 5416 5418 5419 5421 5422 5424 5425 5426
5429 5427 5426 5424 5423 5421 5419 5418 5416 5415 5414 5412 5411 5410 5409 5408 5407 5407 5406 5406 5406 5405 5405 5405 5404 5404 5404 5404 5403 5403 5402 5402 5401 5401 5401 5401 5402 5402 5402 5402 5402 5402 5402 5402 5403 5404 5403 5404 5404 5404 5405 5405 5406 5406 5406 5407 5408 5409 5410 5411 5412 5414 5415 5417 5418 5419 5420 5422 5423
5425 5424 5422 5420 5419 5418 5416 5414 5413 5412 5410 5409 5408 5407 5406 5405 5404 5403 5403 5402 5402 5402 5401 5401 5401 5401 5401 5400 5400 5399 5399 5399 5399 5399 5398 5398 5399 5399 5399 5399 5399 5399 5399 5399 5401 5401 5401 5401 5402 5402 5403 5403 5404 5404 5404 5405 5405 5406 5407 5409 5410 5411 5412 5414 5415 5416 5417 5419 5420
5422 5420 5419 5417 5415 5414 5412 5411 5409 5408 5407 5406 5404 5404 5402 5401 5400 5400 5399 5399 5398 5398 5398 5398 5397 5397 5397 5397 5397 5396 5396 5396 5396 5396 5395 5395 5395 5395 5395 5395 5396 5396 5396 5396 5398 5398 5398 5399 5399 5400 5400 5401 5401 5402 5402 5403 5403 5404 5405 5406 5407 5409 5409 5411 5412 5413 5414 5415 5417
5418 5416 5415 5413 5411 5410 5409 5407 5406 5404 5403 5402 5401 5400 5399 5398 5397 5396 5395 5395 5394 5394 5394 5394 5394 5393 5393 5393 5393 5393 5393 5393 5393 5393 5393 5392 5392 5392 5392 5392 5393 5393 5393 5394 5394 5395 5395 5396 5396 5397 5397 5398 5399 5399 5400 5400 5401 5402 5403 5404 5405 5406 5407 5408 5409 5409 5411 5412 5413